星链-5124 (STARLINK-5124 )

导读 | 豆包AI

STARLINK-5124是美国SpaceX星链互联网卫星星座的一员,于北京时间2022年10月5日发射入轨。它属于星链低轨卫星群的扩容任务,和同批次卫星共同搭建全球低轨宽带互联网覆盖网络,为偏远地区提供互联网接入,支撑卫星通信服务能力升级,目前正常在轨运行,服务全球星链用户。

Basic Information
目录编号:
54011
目录名称:
STARLINK-5124
国际标识:
2022-125AZ
轨道中心:
EARTH
卫星名称:
星链-5124
卫星全名:
星链-5124 (STARLINK-5124 )
卫星状态:
在轨 (已飞行1257 天)
发射日期:
2022-10-05 UTC
国别 :
美国 (US)
星等 :
--
Orbit Information
数据来源 国际轨道数据 AOE轨道数据
星历时间 2026-03-15T00:14:29+0800
18小时前
查看轨道信息
2026-03-13T06:00:00+0800
2天前
查看轨道信息
半长轴 6917.87km 6917.86km
偏心率 0.0001152 0.0001552
轨道倾角 53.217° 53.219°
近地点辐角 91.216° 73.686°
升交点赤经 181.885° 189.787°
平近点角 268.897° 80.861°
近地点 538.936km 538.649km
远地点 540.53km 540.797km
周期 95.437分钟 95.437分钟
每日圈数 15.088436 15.088469
Detailed Information
固有亮度:
5
最大亮度:
2.5
卫星平台:
Starlink v1.5
覆盖范围:
全球
运营商:
太空探索技术公司
运营商所在国:
美国
制造商(研发单位):
太空探索技术公司
制造商所在国:
美国
使用方式:
暂无
Satellite Introduction
星链(Starlink)计划是由太空探索技术公司(SpaceX)提出的一个巨型低轨卫星互联网星座项目,计划在2019年至2024年间在太空搭建由约1.2万颗卫星组成的“星链”网络,其中1584颗将部署在地球上空550千米处的近地轨道,并从2020年开始工作。该卫星仍在工作。
2D Orbit Map
3D Orbit Map
Orbit Altitude Analysis Chart
Orbit Inclination Analysis Chart
Orbit Comprehensive Analysis Chart
View Comprehensive Chart